Notices

What's New in latest Release from April 7th, 2021:

- Updated Glossary, including Speed of Maximum Gust, and Total Hourly Precipitation

- Updated national and regional climate services offices contacts and prices information

- Addition of station inventory lists for 1981-2010, 1971-2000, and 1961-1990 Normals.

If you haven't already, please take our survey and provide feedback about our website: https://eccc.sondage-survey.ca/f/LanguageSelection.aspx?s=442ca660-fcf1-47c0-95a9-59707d6fd709

Hourly Data Report for April 20, 2021

WIARTON A
ONTARIO
Current Station Operator: NAVCAN

44°44'39.000" N
81°06'31.000" W
221.90 m
6119499
71633
YVV

Download Data

Hourly Data (April 2021)
Hourly Data Report for April 20, 2021
TIME
LST
Temp Definition
°C
Dew Point Definition
°C
Rel Hum Definition
%
Precip. Amount Definition
mm

Wind Dir Definition
10's deg

Wind Spd Definition
km/h
Visibility Definition
km
Stn Press Definition
kPa
Hmdx Definition


Wind Chill Definition


Weather Definition


00:00 1.4 -1.4 82   29 10 24.1 98.27     LegendNANA
01:00 1.2 -2.1 78   28 18 24.1 98.26     Mostly Cloudy
02:00 1.1 -3.2 73   29 25 24.1 98.26     LegendNANA
03:00 0.2 -5.8 64   27 21 24.1 98.31     LegendNANA
04:00 0.0 -6.7 61   26 23 24.1 98.35   -6 Cloudy
05:00 0.0 -6.4 62   27 22 24.1 98.37   -6 LegendNANA
06:00 0.0 -5.7 65   27 29 24.1 98.42   -6 LegendNANA
07:00 0.1 -5.6 66   26 23 24.1 98.48     Cloudy
08:00 0.1 -5.8 64   28 20 24.1 98.54     LegendNANA
09:00 0.0 -5.2 68   28 26 16.1 98.61   -6 Snow
10:00 0.1 -5.8 65   28 26 24.1 98.64     Cloudy
11:00 0.5 -5.6 64   28 21 24.1 98.72     LegendNANA
12:00 0.1 -5.3 67   28 21 24.1 98.78     LegendNANA
13:00 0.2 -5.9 64   28 28 24.1 98.85     Cloudy
14:00 0.0 -5.2 68   29 21 24.1 98.86   -5 LegendNANA
15:00 -0.1 -4.1 74   30 17 24.1 98.88   -5 LegendNANA
16:00 0.3 -4.4 71   30 21 24.1 98.89     Cloudy
17:00 0.0 -5.6 66   29 21 24.1 98.93   -5 LegendNANA
18:00 -0.3 -6.2 64   29 14 24.1 98.93   -5 LegendNANA
19:00 -0.7 -5.9 68   29 14 24.1 98.95   -5 Cloudy
20:00 -1.0 -6.3 68   28 13 24.1 98.98   -5 LegendNANA
21:00 -1.1 -6.0 70   30 9 24.1 98.97   -4 LegendNANA
22:00 -1.3 -5.9 71   33 7 24.1 98.88   -4 Cloudy
23:00 -1.0 -6.1 68   33 12 24.1 98.86   -5 LegendNANA

Notes on Data Quality.

Legend

  • E = Estimated
  • M = Missing
  • NA = Not Available*
  • [empty] = Indicates an unobserved value
Date modified: